User: anonymous   Login
Location: Caltech
(34.1382°N, 118.1253°W)
Time: 03:08:03
(UTC-07:00)
Language:

Oscar 19 - Orbit

View from above orbital plane
View from above orbital plane
View from above satellite
View from above satellite

Ground track
Ground track

The orbit data is extracted from the following two-line orbital elements,

1 20442U 90005G   16177.37562222  .00000022  00000-0  23897-4 0  9994
2 20442  98.5436 112.2036 0012792 119.0663 241.1804 14.32820415380529
Epoch (UTC): 25 June 2016 09:00:53
Eccentricity: 0.0012792
inclination: 98.5436°
perigee height: 773 km
apogee height: 791 km
right ascension of ascending node: 112.2036°
argument of perigee: 119.0663°
revolutions per day: 14.32820415
mean anomaly at epoch: 241.1804°
orbit number at epoch: 38052

The dashed part of the orbit path shows where the satellite is in the earth's shadow,  

DLR